Regional Weather Roundup
Issued by NWS

Home | Current Version | Previous Version | Graphics & Text | Print | Product List | Glossary Off
Versions: 1 2 3 4 5 6 7 8 9 10 11 12 13 14 15 16 17 18 19 20 21 22 23 24 25 26 27 28 29 30 31 32 33 34 35 36 37 38 39 40 41 42 43 44 45 46 47 48 49 50

000
ASUS43 KFSD 230210
RWRSD

WEATHER ROUNDUP FOR SOUTH DAKOTA
NATIONAL WEATHER SERVICE SIOUX FALLS SD
800 PM CST SAT NOV 22 2014

NOTE: "FAIR" INDICATES FEW OR NO CLOUDS BELOW 12,000 FEET WITH NO
SIGNIFICANT WEATHER AND/OR OBSTRUCTIONS TO VISIBILITY.


SDZ001>005-009-010-012>017-230300-
NORTHWEST AND NORTH CENTRAL SOUTH DAKOTA

CITY           SKY/WX    TMP DP  RH WIND       PRES   REMARKS
BUFFALO          N/A     40  31  70 W12       29.34R
FAITH            N/A     42  28  57 CALM      29.40R
MOBRIDGE       CLOUDY    37  31  78 CALM      29.35F
$$

SDZ012>016-024>037-041>051-057-063-072>074-230300-
SOUTHWEST AND SOUTH CENTRAL SOUTH DAKOTA

CITY           SKY/WX    TMP DP  RH WIND       PRES   REMARKS
RAPID CTY ARPT CLOUDY    44  30  57 E3        29.42R
PIERRE         CLOUDY    41  31  67 SW6       29.41S
CUSTER         MOCLDY    38  30  73 W9G22     29.45S
ELLSWORTH AFB  CLOUDY    42  30  62 E6        29.41S
PHILIP         CLOUDY    43  31  62 CALM      29.41F
PINE RIDGE     CLOUDY    42  31  64 CALM      29.48S
SPEARFISH      MOCLDY    46  30  53 NW9       29.42S
WINNER         CLOUDY    47  32  56 CALM      29.44S
$$

SDZ004>011-016>023-039-040-230300-
NORTHEAST SOUTH DAKOTA

CITY           SKY/WX    TMP DP  RH WIND       PRES   REMARKS
ABERDEEN       CLOUDY    32  29  88 S6        29.39S WCI  26
WATERTOWN      PTCLDY    34  31  88 S9        29.41R WCI  27
SISSETON         N/A     32  31  96 S10       29.40F WCI  24
$$

SDZ017-020-022-023-036>040-048>070-230300-
SOUTHEAST SOUTH DAKOTA

CITY           SKY/WX    TMP DP  RH WIND       PRES   REMARKS
SIOUX FALLS    CLOUDY    40  37  89 S14       29.46F
HURON          MOCLDY    37  33  85 S8        29.41S
CHAMBERLAIN    CLOUDY    37  31  79 W3        29.43S
MITCHELL       MOCLDY    44  34  67 SW8       29.45R
YANKTON        CLOUDY    48  37  66 SW9       29.47F
$$

ABBREVIATIONS USED IN REMARKS
   TC - TEMPERATURE IN CELSIUS
  WCI - WIND CHILL INDEX
   HX - HEAT INDEX
  VSB - VISIBILITY



USA.gov is the U.S. government's official web portal to all federal, state and local government web resources and services.